Regional Weather Roundup
Issued by NWS

Home | Current Version | Previous Version | Text Only | Print | Product List | Glossary On
Versions: 1 2 3 4 5 6 7 8 9 10 11 12 13 14 15 16 17 18 19 20 21 22 23 24 25 26 27 28 29 30 31 32 33 34 35 36 37 38 39 40 41 42 43 44 45 46 47 48 49 50
000
ASUS43 KLMK 211702
RWRKY
KENTUCKY REGIONAL WEATHER ROUNDUP
NATIONAL WEATHER SERVICE LOUISVILLE KY
100 PM EDT THU AUG 21 2014

NOTE "FAIR" INDICATES FEW OR NO CLOUDS BELOW 12,000 FEET
WITH NO SIGNIFICANT WEATHER AND/OR OBSTRUCTIONS TO VISIBILITY.

KYZ001>023-026-027-061>063-070>075-211800-
WESTERN AND SOUTH CENTRAL KENTUCKY

CITY           SKY/WX    TMP DP  RH WIND       PRES   REMARKS
PADUCAH        SUNNY     92  72  51 W14       30.07F HX  99
HENDERSON      MOSUNNY   90  75  62 W9        30.06S HX 100
OWENSBORO      MOSUNNY   87  76  69 SW9       30.09S HX  97
HOPKINSVILLE   NOT AVBL
BOWLING GREEN  PTSUNNY   89  72  56 W9        30.12S HX  96
GLASGOW        PTSUNNY   86  73  63 W8        30.13S HX  93
$$

KYZ024-025-028>034-038-045-046-053-211800-
NORTH CENTRAL KENTUCKY

CITY           SKY/WX    TMP DP  RH WIND       PRES   REMARKS
LOUISVILLE/SDF CLOUDY    83  73  72 W10       30.07F
LOUISVILLE/LOU CLOUDY    84  74  71 SW10      30.08F HX  91
FORT KNOX      CLOUDY    85  74  70 SW10      30.08F HX  93
$$

KYZ035>037-039>044-047>052-055>060-089>105-211800-
NORTHEAST KENTUCKY

CITY           SKY/WX    TMP DP  RH WIND       PRES   REMARKS
LEXINGTON      PTSUNNY   84  73  69 SW7       30.11S HX  90
COVINGTON      CLOUDY    74  71  91 SW3       30.10R
FRANKFORT      PTSUNNY   81  73  76 W8        30.09S
$$

KYZ054-064>069-076>088-106>120-211800-
SOUTHEAST KENTUCKY

CITY           SKY/WX    TMP DP  RH WIND       PRES   REMARKS
JACKSON        MOSUNNY   81  72  74 VRB3      30.15F
LONDON         MOSUNNY   85  71  63 W10       30.17S HX  90
SOMERSET       PTSUNNY   81  73  78 SW7       30.17S
MIDDLESBORO    MOSUNNY   80  70  71 SE3       30.19F
MONTICELLO     PTSUNNY   84  74  72 SW9       30.18S HX  91
$$




USA.gov is the U.S. government's official web portal to all federal, state and local government web resources and services.